Location: Newark
(13.8117°N, 3.6025°W)
Time: 08:15:53
(UTC+00:00)

Vanguard 2 - Visible Passes

Search period start: 26 August 2019 00:00
Search period end: 05 September 2019 00:00
Orbit: 554 x 2938 km, 32.9° (Epoch: 25 August)

Date Brightness Start Highest point End Pass type
(mag) Time Alt. Az. Time Alt. Az. Time Alt. Az.
26 Aug 10.5 19:06:49 10° WNW 19:20:06 60° SW 19:37:39 10° SE visible
26 Aug 11.4 21:21:30 10° W 21:33:30 24° SW 21:39:39 20° S visible
27 Aug 10.8 19:25:26 10° WNW 19:38:28 47° SW 19:55:10 10° SSE visible
27 Aug 11.6 21:42:52 10° WSW 21:52:19 17° SSW 21:57:00 15° SSW visible
28 Aug 11.1 19:44:27 10° W 19:56:57 36° SW 20:12:24 10° SSE visible
28 Aug 11.8 22:07:08 10° SW 22:11:26 11° SSW 22:14:22 11° SSW visible
29 Aug 11.4 20:04:02 10° W 20:15:35 27° SSW 20:29:15 10° SSE visible
30 Aug 11.6 20:24:30 10° WSW 20:34:24 20° SSW 20:45:37 10° S visible
31 Aug 10.0 05:34:54 10° S 05:38:51 16° SSE 05:42:00 10° ESE visible
31 Aug 10.9 18:28:37 10° W 18:39:22 39° SSW 18:54:28 10° SSE visible
31 Aug 11.8 20:46:35 10° SW 20:53:29 14° SSW 21:00:55 10° S visible
01 Sep 11.2 18:47:49 10° W 18:57:59 29° SSW 19:11:30 10° SSE visible
02 Sep 10.7 04:03:12 10° S 04:05:07 11° SSE 04:06:53 10° SE visible
02 Sep 11.5 19:07:44 10° WSW 19:16:48 21° SSW 19:28:05 10° SSE visible
03 Sep 10.3 04:18:08 10° SSW 04:23:46 18° SSE 04:28:01 10° ESE visible
03 Sep 11.7 19:28:53 10° WSW 19:35:49 15° SSW 19:43:51 10° S visible
04 Sep 9.7 04:35:15 11° SSW 04:42:16 27° SSE 04:47:19 10° E visible
